Location: Fabbrica
(44.1167°N, 10.3167°E)
Time: 02:18:18
(UTC+00:00)

Daily predictions for brighter satellites

Satellite Brightness Start Highest point End
(mag) Time Altitude Azimuth Time Altitude Azimuth Time Altitude Azimuth
ADEOS II 4.4 00:02:38 10° ENE 00:05:12 14° E 00:07:45 10° ESE
Cosmos 1867 4.1 00:05:01 37° WSW 00:06:49 53° NW 00:12:12 10° NNE
Cosmos 1674 Rocket 3.8 00:06:55 55° W 00:06:55 55° W 00:11:11 10° N
Cosmos 2221 Rocket 4.4 00:06:47 38° W 00:06:56 38° WNW 00:11:05 10° N
NOSS 2-2 (D) 4.3 00:02:21 10° NW 00:07:33 85° NE 00:11:38 27° SE
Cosmos 1461 4.0 00:03:46 10° NW 00:06:31 34° WNW 00:06:31 34° WNW
Cosmos 2298 Rocket 3.9 00:07:41 63° SSW 00:08:35 85° WNW 00:13:55 10° NNE
Cosmos 1674 4.2 00:10:51 27° WNW 00:10:51 27° WNW 00:13:43 10° NNW
USA 306 2.9 00:11:52 73° ENE 00:11:52 73° ENE 00:15:41 10° NE
Thor Agena Rocket 3.9 00:09:11 10° NNE 00:14:25 58° ESE 00:15:34 47° SSE
USA 307 2.9 00:15:20 70° E 00:15:20 70° E 00:19:09 10° NE
ATLAS CENTAUR R/B 3.7 00:12:11 10° WNW 00:13:59 17° W 00:13:59 17° W
SL-16 R/B 3.5 00:16:08 24° SE 00:17:42 27° ESE 00:22:24 10° NE
ERBS 3.9 00:22:52 28° ENE 00:22:52 28° ENE 00:24:30 10° NE
Cosmos 1980 3.6 00:20:38 54° SSW 00:21:59 88° WNW 00:27:40 10° NNE
Cosmos 1378 Rocket 4.3 00:22:19 40° W 00:22:33 40° WNW 00:26:45 10° N
Cosmos 2333 Rocket 4.1 00:19:42 13° W 00:23:11 23° NW 00:27:37 10° N
ATLAS 5 CENTAUR R/B 2.6 00:13:56 10° NW 00:24:08 59° WSW 00:24:39 56° SSW
CZ-4C R/B 3.2 00:17:43 10° NW 00:24:58 53° WSW 00:27:53 38° S
Cosmos 1455 Rocket 3.7 00:20:41 10° N 00:25:02 50° ENE 00:26:09 40° ESE
Cosmos 332 Rocket 3.7 00:28:23 61° SSE 00:29:05 72° ESE 00:33:52 10° NNE
NOSS 0 Rocket 4.1 00:29:23 39° SW 00:31:39 64° WNW 00:37:53 10° NNE
USA 32 4.0 00:35:15 52° SW 00:36:23 69° W 00:41:39 10° N
Meteor 1-24 Rocket 4.3 00:34:53 33° SSE 00:37:01 50° E 00:42:17 10° NNE
Meteor 2-10 Rocket 3.6 00:33:51 10° NNW 00:39:32 85° W 00:41:17 46° S
Cosmos 1975 Rocket 3.0 00:39:39 62° SSE 00:40:20 77° E 00:44:48 10° N
Cosmos 839 Rocket 4.2 00:38:49 10° NW 00:45:12 64° WSW 00:49:12 29° S
USA 308 3.1 00:44:46 52° W 00:45:34 65° NNW 00:49:45 10° NE
Cosmos 2219 Rocket 4.2 00:42:56 11° W 00:46:32 20° NW 00:50:34 10° N
Cosmos 1025 Rocket 3.0 00:47:03 58° SSE 00:47:48 74° E 00:52:07 10° NNE
Cosmos 1455 3.6 00:47:44 10° N 00:51:06 32° ENE 00:52:38 23° ESE
Cosmos 1269 Rocket 4.2 00:46:41 10° NNW 00:51:59 71° ENE 00:55:06 25° SSE
GP-B 3.4 00:53:13 10° N 00:57:30 48° W 00:58:07 45° WSW
Meteor 2-5 Rocket 3.7 00:55:37 39° S 00:57:53 87° E 01:03:36 10° N
Lacrosse 5 1.9 00:58:31 47° SSW 00:59:50 65° SE 01:04:54 10° NE
CZ-2D R/B 2.1 00:54:58 10° NNE 01:00:23 76° ESE 01:02:28 38° S
USA 267 4.1 01:02:15 27° WSW 01:02:15 27° WSW 01:07:16 10° WNW
Cosmos 1300 3.8 00:58:31 10° NNW 01:01:27 30° WNW 01:01:27 30° WNW
USA 305 3.9 01:07:08 24° W 01:09:10 41° NNW 01:13:09 10° NE
Cosmos 1544 Rocket 3.5 01:06:59 10° N 01:11:26 81° E 01:13:10 36° SSE
USA 229 DEB 4.4 01:05:18 10° NW 01:12:09 40° WSW 01:15:06 29° SSW
USA 229 4.4 01:05:23 10° NW 01:12:14 40° WSW 01:15:15 29° SSW
Cosmos 2237 Rocket 3.1 01:11:28 25° WSW 01:14:07 39° WNW 01:19:28 10° NNE
SL-16 R/B 2.5 01:14:42 22° SSE 01:18:59 84° WSW 01:25:17 10° NNW
AQUA 3.9 01:14:55 10° NNE 01:19:42 74° ESE 01:21:49 33° S
Helios 1A 3.9 01:16:52 15° SE 01:20:11 48° ENE 01:24:16 10° N
Lacrosse 5 rocket 1.3 01:21:54 49° S 01:22:40 62° SE 01:26:40 10° NE
SAR-Lupe-2 3.6 01:19:39 10° NNE 01:23:15 76° ESE 01:24:09 48° S
SME Rocket 3.8 01:24:34 33° WSW 01:25:00 34° W 01:29:19 10° NNW
Resurs 1-4 Rocket 2.3 01:24:20 10° N 01:29:30 59° WNW 01:31:56 31° SW
Cosmos 2074 Rocket 4.0 01:23:25 10° N 01:29:43 77° W 01:33:59 22° S
Cosmos 2297 3.7 01:28:49 10° NNW 01:34:37 88° WSW 01:40:21 10° SSE
Cosmos 1943 Rocket 2.1 01:28:57 10° NNW 01:34:37 70° WSW 01:39:28 14° SSE
Cosmos 1703 3.9 01:35:52 24° SSE 01:38:00 53° E 01:41:50 10° NNE
CRYOSAT 2 4.3 01:38:47 26° S 01:41:29 72° W 01:46:23 10° N
Cosmos 2184 Rocket 4.1 01:38:24 10° NNW 01:44:33 61° W 01:48:45 21° SSW
Cosmos 2278 Rocket 3.8 01:41:53 10° WNW 01:45:08 16° W 01:45:23 16° W
ADEOS II 2.0 01:40:13 10° NNE 01:45:29 80° WNW 01:48:40 25° SSW
IDEFIX/ARIANE 42P 2.6 01:41:06 10° NNE 01:46:25 87° ESE 01:49:52 22° SSW
Cosmos 1610 Rocket 4.4 01:42:14 10° N 01:48:25 86° W 01:54:08 12° S
Cosmos 292 Rocket 3.7 01:48:10 26° SSW 01:50:55 86° ESE 01:55:44 10° NNE
NPP 4.3 01:52:22 10° N 01:57:25 42° WNW 02:00:36 21° SW
Cosmos 2369 Rocket 2.4 01:54:18 10° NNW 01:59:55 74° ENE 02:05:29 10° SSE
SL-16 R/B 2.8 01:58:00 21° WSW 02:01:32 47° WNW 02:07:01 10° NNE
Cosmos 2228 3.0 01:59:01 10° N 02:03:24 89° W 02:07:32 11° S
IRS-1D 3.7 01:58:03 10° NNE 02:03:25 75° ESE 02:07:54 15° S
Cosmos 614 Rocket 4.0 01:58:19 10° NNW 02:03:28 63° WSW 02:08:36 10° S
EO 1 Del DPAF 3.3 02:00:11 10° N 02:03:37 54° WNW 02:05:17 27° SW
Meteor 1-28 Rocket 3.6 02:03:36 25° SSW 02:05:21 43° W 02:08:56 10° NNW
Cosmos 2251 Rocket 3.6 02:00:13 10° NNW 02:05:31 84° ENE 02:10:49 10° SSE
COSMOS 2455 2.9 02:04:48 20° SW 02:09:04 75° WNW 02:15:08 10° NNE
Cosmos 1656 Rocket 3.9 02:03:53 10° NNW 02:09:18 70° ENE 02:14:42 10° SSE
Cosmos 1536 Rocket 4.2 02:08:03 22° SW 02:10:26 41° WNW 02:14:36 10° N
COSMOS 2441 4.4 02:13:50 10° N 02:18:43 77° WNW 02:22:48 14° SSW
Cosmos 1408 4.4 02:16:23 10° SSE 02:19:32 28° E 02:22:42 10° NNE
Nadezhda 1 Rocket 4.4 02:15:05 17° SW 02:19:50 49° WNW 02:25:56 10° N
MSX 4.0 02:17:44 10° N 02:23:26 62° WNW 02:28:25 14° SSW
Cosmos 1603 3.9 02:19:47 12° SSW 02:24:56 69° ESE 02:30:35 10° NNE
MOS 1 Rocket 4.3 02:23:22 17° SW 02:25:13 23° W 02:28:38 10° NW
Cosmos 1455 3.9 02:23:56 10° NW 02:26:18 16° W 02:27:23 15° WSW
Cosmos 1271 Rocket 3.7 02:27:01 10° NNW 02:30:20 28° W 02:32:44 15° SW
Cosmos 1606 Rocket 3.6 02:30:12 10° NNW 02:34:34 62° W 02:38:52 10° S
ALOS 3.0 02:33:15 10° NNE 02:37:49 51° E 02:42:21 10° S
CZ-2D R/B 4.0 02:36:25 10° NNW 02:39:46 17° WNW 02:43:04 10° W
CZ-2C R/B 3.2 02:34:58 10° NNE 02:40:00 54° E 02:44:52 10° S
Lacrosse 5 3.2 02:38:30 10° W 02:43:08 33° NNW 02:47:45 10° NE
Helios 1B rocket 2.4 02:40:33 10° N 02:44:38 80° WNW 02:48:40 10° SSW
Cosmos 2366 rocket 4.0 02:40:43 10° N 02:46:53 85° W 02:53:05 10° S
Cosmos 2341 Rocket 4.2 02:41:07 10° NNW 02:47:23 60° W 02:53:38 10° S
BREEZE-M DEB (TANK) 2.3 02:47:12 10° WSW 02:51:46 79° SSE 02:54:02 10° ENE
Meteor 2-1 Rocket 4.5 02:46:22 10° NNW 02:51:56 52° W 02:57:22 10° SSW
Meteor 1-11 4.4 02:47:18 10° S 02:53:07 85° E 02:58:56 10° NNE
Cosmos 407 Rocket 3.5 02:48:09 10° NNW 02:53:26 67° WSW 02:58:38 10° S
SL-8 Rocket 4.1 02:47:53 10° NNW 02:54:08 64° W 03:00:21 10° S
Okean 1-7 Rocket 4.3 02:50:28 10° S 02:54:47 54° E 02:59:05 10° NNE
Cosmos 1371 Rocket 4.1 02:49:53 10° SSW 02:55:03 83° ESE 03:00:16 10° NNE
Cosmos 1328 4.4 02:52:21 10° SSW 02:56:05 41° WNW 02:59:53 10° N
Cosmos 1943 3.4 02:50:49 10° SW 02:56:27 62° WNW 03:02:07 10° NNE
Genesis I 3.2 02:57:03 10° NW 03:01:06 74° WSW 03:05:03 10° SSE
Lacrosse 5 rocket 3.0 02:58:40 10° W 03:02:01 26° NNW 03:05:34 10° NNE
SL-16 R/B 4.2 03:00:39 10° WSW 03:03:28 13° W 03:06:19 10° WNW
Meteor 1-29 3.3 03:00:28 10° NNE 03:03:41 60° ESE 03:06:54 10° S
Cosmos 1140 Rocket 3.7 02:59:16 10° NNW 03:04:20 50° WSW 03:09:22 10° S
Lacrosse 4 Rocket 2.7 03:04:40 10° S 03:08:41 39° ESE 03:12:39 10° NE
SeaSat 1 3.1 03:04:38 10° NE 03:09:29 54° ESE 03:14:18 10° SSW
Cosmos 1892 Rocket 4.2 03:05:39 10° SSW 03:09:53 42° WNW 03:14:09 10° N
IRS-1C 4.2 03:06:10 10° NNE 03:11:32 82° WNW 03:16:52 10° SSW
